This is the latest recevied weather packets stored in our database for station/object WR9A-13. If no packets are shown the sender has not sent any weather packets the latest 10 day(s).
| Time | Temp. | Humidity | Pressure | Rain* | Wind** | Luminosity | Snow |
|---|---|---|---|---|---|---|---|
| 1777674348 | 11.11° C | 62% | 1017.2 hPa | 0 mm | - | - | - |
| 1777673725 | 11.11° C | 63% | 1017.1 hPa | 0 mm | - | - | - |
| 1777673433 | 11.67° C | 64% | 1017.2 hPa | 0 mm | - | - | - |
| 1777673131 | 11.67° C | 62% | 1017.2 hPa | 0 mm | - | - | - |
| 1777672842 | 11.67° C | 64% | 1017.3 hPa | 0 mm | - | - | - |
| 1777672530 | 11.11° C | 63% | 1017.3 hPa | 0 mm | - | - | - |
| 1777672218 | 11.11° C | 68% | 1017.4 hPa | 0 mm | - | - | - |
| 1777671915 | 10.56° C | 67% | 1017.4 hPa | 0 mm | - | - | - |
| 1777671619 | 10.56° C | 69% | 1017.3 hPa | 0 mm | - | - | - |
| 1777671316 | 10° C | 69% | 1017.2 hPa | 0 mm | - | - | - |
| 1777671022 | 10° C | 72% | 1017.4 hPa | 0 mm | - | - | - |
| 1777670718 | 10° C | 70% | 1017.4 hPa | 0 mm | - | - | - |
| 1777670434 | 10° C | 68% | 1017.4 hPa | 0 mm | - | - | - |
| 1777670122 | 10° C | 69% | 1017.4 hPa | 0 mm | - | - | - |
| 1777669840 | 10.56° C | 67% | 1017.5 hPa | 0 mm | - | - | - |
| 1777669527 | 10.56° C | 70% | 1017.5 hPa | 0 mm | - | - | - |
| 1777669219 | 10.56° C | 69% | 1017.5 hPa | 0 mm | - | - | - |
| 1777668927 | 10° C | 71% | 1017.3 hPa | 0 mm | - | - | - |
| 1777668623 | 10° C | 73% | 1017.3 hPa | 0 mm | - | - | - |
| 1777668331 | 10° C | 72% | 1017.4 hPa | 0 mm | - | - | - |
| 1777668028 | 10° C | 72% | 1017.4 hPa | 0 mm | - | - | - |
| 1777667716 | 10.56° C | 68% | 1017.5 hPa | 0 mm | - | - | - |
| 1777667414 | 11.11° C | 61% | 1017.3 hPa | 0 mm | - | - | - |
| 1777667121 | 11.11° C | 61% | 1017.3 hPa | 0 mm | - | - | - |
| 1777666818 | 11.11° C | 61% | 1017.4 hPa | 0 mm | - | - | - |
* Rain latest hour (hover to see other rain measurements)
** Current wind speed in m/s (hover to see current wind gust speed)